Probability
3 1 0 0 0 0 0 0 0 0 0 0 0 0 0 0 0 0 0 0 0 0 1 1 1 0 0 0 0 0 0 0 0 0 0 0 0 0 0 0 0 0 0 0 0 0 0 0 0
2 1 0 0 0 0 0 0 0 0 0 0 0 0 0 0 0 0 0 0 0 0 0 0 0 0 0 0 0 0 0 0 0 0 0 0 0 0 0 0 0 0 0 0 0 0 0 0 0
1 1 0 0 0 0 0 0 0 0 0 0 0 0 0 0 0 0 0 0 0 0 0 0 0 0 0 0 0 0 0 0 0 0 0 0 0 0 0 0 0 0 0 0 0 0 0 0 0
2 1 0 0 0 0 0 0 0 0 0 0 0 0 0 0 0 0 0 0 0 1 1 1 1 0 0 0 0 0 0 0 0 0 0 0 0 0 1 0 0 0 0 0 0 0 0 0 0
5 3 0 0 0 0 0 0 0 0 0 0 0 0 0 1 1 1 0 0 1 2 2 2 1 0 0 1 1 0 0 0 0 0 0 0 0 0 0 0 0 0 0 0 0 0 0 0 0
6 2 0 0 0 0 0 0 0 0 0 0 0 0 1 2 2 2 1 1 1 3 3 2 1 1 1 2 1 0 0 0 0 0 0 0 0 0 0 0 0 0 0 0 0 0 0 0 0
3 1 0 0 0 0 0 0 0 0 0 0 0 0 1 3 3 2 1 2 3 3 3 2 1 1 1 2 1 0 0 0 0 0 0 0 0 0 0 0 0 0 0 0 0 0 0 0 0
1 0 0 0 0 0 0 0 0 0 0 0 0 1 2 4 4 2 2 2 3 3 2 1 2 1 1 1 0 0 0 0 0 0 0 0 0 0 0 0 0 0 0 0 0 1 1 1 1
0 0 0 0 0 0 0 0 0 0 0 0 0 1 3 4 3 2 1 2 3 3 2 1 1 1 0 0 0 0 0 0 0 0 0 0 0 0 0 1 0 0 0 0 1 2 2 2 2
0 0 0 0 0 0 0 0 0 0 0 0 0 1 3 3 2 1 1 1 2 2 3 2 2 1 1 0 0 0 0 0 0 0 0 0 0 0 0 0 0 0 0 0 1 3 3 2 1
0 0 0 0 0 0 0 0 0 0 0 0 0 1 2 3 3 2 2 2 2 3 4 3 3 2 2 1 0 0 0 0 0 0 0 0 0 0 0 0 0 0 0 1 1 2 3 2 1
0 0 0 0 0 0 0 1 0 0 0 0 0 0 1 3 3 3 3 4 5 6 5 4 3 3 3 1 0 0 0 0 0 0 0 0 0 0 0 0 0 0 0 0 1 2 3 3 2
0 0 0 0 0 0 0 1 0 0 0 0 0 0 1 2 3 3 3 4 5 7 6 3 2 3 3 2 1 0 0 0 0 0 0 0 0 0 0 0 0 0 0 1 1 1 2 2 1
0 0 0 0 0 0 0 1 0 0 0 0 0 0 0 1 2 3 3 3 4 5 5 3 2 2 2 2 1 0 0 0 0 0 0 0 0 0 0 0 0 0 0 1 1 1 1 1 0
0 0 0 0 0 0 0 0 0 0 0 0 0 0 0 0 1 2 3 3 4 4 4 4 3 2 2 1 0 0 0 0 0 0 0 0 0 0 0 0 0 0 0 1 1 0 0 0 0
0 0 0 0 0 0 0 0 0 0 0 0 0 0 0 0 0 1 3 3 4 5 6 5 4 3 2 1 0 0 0 0 0 0 0 0 0 0 0 0 0 0 0 0 0 0 0 0 0
0 0 0 0 0 0 0 0 0 0 0 0 0 1 1 0 0 1 3 3 4 6 7 7 5 3 3 2 1 0 0 0 0 0 0 0 0 0 0 0 0 0 0 0 0 0 0 0 0
0 0 0 0 0 0 0 0 0 0 0 0 0 1 2 1 1 2 3 3 4 6 8 8 6 4 3 2 1 0 0 0 0 0 0 0 0 0 0 0 0 0 0 0 0 0 0 0 0
0 0 0 0 0 0 0 0 0 0 0 0 0 1 2 2 2 2 3 4 6 7 8 9 8 6 4 2 1 1 0 0 0 0 0 0 0 0 0 0 0 0 0 0 0 0 0 0 0
0 0 0 0 0 0 0 0 0 0 0 0 0 0 1 1 2 2 3 6 7 8 9 10 10 8 5 3 1 0 0 0 0 0 0 0 0 0 0 0 0 0 0 0 0 0 0 0 0
0 0 0 0 0 0 0 0 0 0 1 1 0 0 0 1 2 3 4 5 7 8 10 11 11 9 7 5 2 0 0 0 0 0 0 0 0 0 0 0 0 0 0 0 0 0 0 0 0
0 0 0 0 0 0 0 0 0 0 1 2 1 0 0 1 2 3 4 5 6 8 11 11 11 10 8 6 3 1 1 0 0 0 0 0 0 0 0 0 0 0 0 0 0 0 0 0 0
0 0 0 0 0 0 0 0 0 0 1 1 1 1 0 0 1 3 4 5 6 8 9 10 10 10 9 7 4 2 1 0 0 0 0 0 0 0 0 0 0 0 0 0 0 0 0 0 0
0 0 0 0 0 0 0 0 0 0 0 0 0 0 0 0 1 3 6 6 6 7 8 10 10 11 11 8 5 3 1 0 0 0 0 0 0 0 0 0 0 0 0 0 0 0 0 0 0
0 0 0 0 0 0 0 0 0 0 0 0 0 0 0 1 3 5 7 7 7 7 9 10 10 11 12 11 7 3 1 1 0 0 0 0 0 0 0 0 0 0 0 0 0 0 0 0 0
0 0 0 0 0 0 0 0 0 0 0 0 0 0 1 2 4 6 8 9 9 9 9 9 9 10 12 12 9 5 3 2 0 0 0 0 0 0 0 0 0 0 0 0 0 0 0 0 0
0 0 0 0 0 0 0 0 0 0 0 0 0 1 2 4 6 8 9 10 10 10 8 7 8 8 9 10 9 7 4 2 0 0 0 0 0 0 0 0 0 0 0 0 0 0 1 1 1
0 0 0 0 0 0 0 0 0 0 0 0 0 1 3 5 8 10 11 11 10 8 6 6 6 7 7 7 7 6 4 1 0 0 0 0 0 0 0 0 0 0 0 0 0 0 1 2 2
0 0 0 0 0 0 0 0 0 0 0 0 0 1 4 6 8 10 11 12 10 7 5 5 5 5 5 4 4 4 3 1 0 1 1 1 0 0 0 0 0 0 0 0 0 0 1 1 1
0 0 0 0 0 0 0 0 0 0 0 0 0 2 4 6 7 8 11 12 10 7 6 5 4 4 4 4 3 3 2 1 1 2 2 2 1 0 0 0 0 0 0 0 0 0 0 0 0
Wind_Speed
9 9 6 2 2 1 2 5 7 7 7 8 8 9 12 12 9 8 3 5 9 10 10 10 10 10 10 10 10 11 10 10 10 10 10 9 9 8 8 9 9 9 9 9 9 9 9 9 9
8 6 3 2 2 1 3 6 8 8 7 6 7 10 12 12 11 8 4 5 8 10 9 10 10 10 10 10 10 10 10 10 10 10 10 9 9 8 8 8 8 8 9 9 9 9 9 8 8
10 6 3 2 1 2 4 7 8 8 6 5 7 10 9 7 9 6 5 6 8 10 11 10 10 10 10 10 10 10 10 10 9 9 9 9 9 8 8 9 8 8 9 9 8 8 8 8 8
5 3 3 0 3 5 6 6 6 6 6 6 7 9 9 8 7 8 7 7 9 10 11 10 10 10 10 10 10 10 10 10 10 9 9 9 9 9 9 9 8 8 8 8 8 8 8 8 7
3 3 1 1 3 5 5 6 6 6 7 8 10 10 9 9 10 9 7 7 8 9 10 9 10 10 10 10 10 9 10 10 9 9 9 9 9 9 9 9 9 8 8 8 8 8 7 7 7
2 2 1 2 4 5 5 5 5 6 7 7 9 9 8 8 8 7 6 6 7 8 9 9 10 10 9 9 9 9 9 9 9 8 8 8 8 8 9 9 8 8 8 7 7 7 6 6 6
2 2 1 3 3 3 4 5 6 6 6 6 6 8 8 8 7 6 6 6 6 7 7 7 7 8 9 9 8 8 8 8 8 7 7 7 7 8 8 8 8 8 8 7 6 6 6 5 4
2 2 1 2 3 3 4 5 6 6 6 5 5 6 7 9 8 7 6 5 5 5 5 5 6 7 7 6 7 8 7 6 6 5 5 5 6 7 8 8 7 7 6 6 5 5 4 4 3
3 1 1 2 2 3 4 5 5 5 7 8 9 10 11 11 9 7 5 5 4 4 4 4 5 4 5 5 7 6 6 5 5 4 4 3 2 3 4 6 6 6 5 4 4 3 3 2 1
2 1 1 2 2 3 4 4 4 5 6 8 10 12 12 10 8 7 6 5 5 4 4 3 4 4 4 4 4 2 3 3 2 2 2 2 2 3 4 5 6 5 4 3 2 2 2 1 1
2 1 2 3 3 3 3 4 3 4 4 6 9 11 10 9 8 6 5 5 4 4 4 4 3 4 4 2 2 1 1 1 1 2 3 2 2 3 2 2 2 2 3 1 1 1 1 1 2
2 2 1 1 2 2 3 3 3 4 5 7 10 10 10 9 7 6 5 5 4 4 4 4 3 4 4 3 2 2 1 1 2 2 3 2 2 2 2 1 1 1 1 1 1 1 2 3 3
2 2 2 2 3 3 4 4 3 4 5 7 10 9 8 8 6 5 6 6 5 4 4 3 3 4 3 3 1 2 2 2 2 1 2 3 2 2 2 2 2 1 1 1 1 2 4 4 4
3 3 4 3 4 4 4 3 2 4 5 6 8 8 7 6 6 5 5 5 5 4 4 3 3 3 3 3 2 2 2 2 2 2 2 3 2 2 2 3 2 2 2 1 2 3 3 3 3
4 5 4 5 5 5 4 3 4 5 6 6 7 7 7 6 5 5 4 4 5 4 5 4 2 3 3 3 2 2 2 2 2 2 2 3 3 3 3 2 2 2 2 3 3 3 3 3 3
6 6 5 5 6 6 5 3 4 6 7 6 6 6 6 6 5 5 5 4 5 5 5 4 3 3 3 2 2 2 2 2 2 2 2 3 3 4 3 2 2 2 2 2 2 3 3 3 2
7 7 6 6 7 6 6 4 5 5 7 6 6 7 6 6 5 5 5 5 5 5 5 4 3 2 2 2 2 2 2 2 2 2 2 2 3 3 3 2 2 3 3 3 3 3 2 2 2
5 5 5 6 6 6 5 4 5 6 7 6 6 6 6 6 5 5 5 5 5 5 4 4 4 3 2 2 2 2 2 2 2 2 2 2 2 3 3 1 2 3 2 2 2 3 3 2 1
6 6 5 4 5 6 6 6 7 8 7 6 6 6 6 6 6 5 5 5 5 5 5 4 4 3 3 2 1 1 1 1 1 1 2 2 2 3 3 2 2 2 2 1 2 2 2 1 1
8 8 6 3 2 4 5 6 6 7 7 6 6 7 7 6 6 5 5 4 4 4 4 4 3 3 3 2 2 1 2 1 1 1 2 2 2 2 2 2 2 2 2 2 2 2 1 1 1
9 7 5 3 3 7 6 6 7 7 7 6 5 4 6 6 7 6 6 5 4 3 3 4 4 4 3 3 2 2 2 1 1 1 1 1 2 3 2 2 2 2 1 1 1 1 2 0 1
8 5 5 5 5 5 8 5 6 8 7 7 5 5 5 4 5 6 5 5 4 4 3 3 3 4 3 4 3 2 2 1 1 1 1 1 1 2 2 2 2 2 2 1 1 1 1 1 0
6 5 7 8 8 8 9 7 4 7 7 8 8 6 5 5 5 5 5 4 4 3 3 3 3 3 3 3 3 3 2 2 1 1 1 1 1 1 2 2 1 2 2 1 1 1 1 1 1
7 8 9 9 7 9 10 7 3 4 7 8 8 7 6 5 5 4 4 4 3 3 3 3 3 3 3 3 4 4 3 2 2 2 1 1 1 1 2 1 1 1 1 1 1 1 1 0 1
7 6 4 5 6 6 5 4 2 5 5 6 8 8 7 6 5 5 4 4 3 3 3 4 4 3 3 3 3 4 4 3 3 2 2 1 1 1 1 1 1 1 1 1 1 1 0 0 1
8 8 5 4 4 3 4 4 4 6 6 6 6 7 6 6 5 6 5 4 4 3 3 3 3 3 3 3 3 3 4 2 2 2 2 1 1 1 1 1 1 1 1 1 1 1 0 0 1
7 7 8 8 8 6 4 4 6 6 6 5 6 6 5 5 5 6 6 6 5 4 3 3 4 3 3 3 3 3 3 2 2 1 2 1 1 1 1 1 1 1 1 1 1 1 0 0 1
8 7 4 5 4 5 3 3 4 7 6 5 4 5 4 4 4 5 4 4 4 4 3 3 4 3 3 2 2 3 2 2 2 1 1 1 1 1 1 1 1 1 1 1 1 1 0 1 0
7 7 5 4 5 4 2 0 2 5 6 6 4 4 4 4 4 4 4 3 3 3 3 3 3 3 3 2 2 2 2 2 2 1 1 1 1 1 1 1 1 1 1 1 1 1 0 0 1
5 6 6 4 5 5 4 1 4 5 3 4 4 4 4 3 4 4 4 4 3 3 3 2 2 3 3 3 3 3 3 2 2 1 1 1 1 0 1 1 1 1 0 0 1 1 0 0 1
Wind_Direction
268 250 241 246 262 233 66 67 71 58 61 56 51 63 65 54 55 88 119 88 95 99 100 89 76 74 71 71 71 73 73 72 73 73 76 79 78 76 77 77 74 73 75 75 72 70 72 70 68
271 271 264 241 249 131 83 80 76 69 73 77 68 68 72 66 74 95 101 89 100 101 98 88 82 76 73 72 72 73 73 72 72 74 77 80 79 77 78 79 79 78 78 76 74 70 71 69 68
263 264 259 251 337 62 87 85 89 86 76 77 76 65 57 67 78 98 113 114 102 96 95 93 88 81 76 75 75 74 74 74 74 75 77 77 77 78 79 80 81 82 80 77 75 74 73 71 69
260 254 247 228 56 64 85 95 102 98 89 76 82 77 71 55 80 105 120 112 102 100 101 102 95 88 83 79 78 77 75 75 75 75 75 74 75 78 81 82 80 81 81 79 76 76 74 72 67
244 255 236 112 85 72 75 83 93 88 83 77 82 91 87 80 93 103 106 106 107 106 108 110 105 98 91 85 81 80 79 77 76 76 75 74 75 79 83 82 78 77 78 78 77 74 75 73 67
270 258 221 127 97 81 76 80 91 93 91 92 99 99 94 103 101 105 102 100 102 108 110 115 116 109 101 95 88 86 84 81 80 81 80 79 78 83 86 83 81 77 77 79 79 77 79 75 67
264 260 203 121 104 92 87 81 82 86 81 79 97 101 113 113 108 110 102 98 97 103 115 125 131 122 113 106 101 98 93 90 90 91 92 92 92 93 94 88 84 82 81 83 85 87 87 83 72
282 279 148 119 117 100 87 83 79 85 80 77 79 103 124 127 127 119 111 107 106 108 112 125 137 135 131 124 117 116 111 107 111 111 109 114 108 100 101 98 92 92 93 93 96 99 100 96 87
259 270 118 119 123 119 112 109 106 103 98 85 73 88 117 125 129 127 119 108 102 102 108 113 114 118 125 130 128 137 134 137 141 142 142 134 117 109 111 108 113 111 111 113 114 121 121 122 118
215 228 124 94 102 114 119 111 122 120 106 101 97 101 118 127 132 132 129 128 123 118 107 98 102 105 107 109 123 146 144 156 169 136 141 152 113 93 100 116 129 137 137 137 143 151 152 179 171
169 163 68 79 96 103 109 85 72 103 99 109 122 126 132 137 139 138 131 125 121 113 100 92 90 94 94 93 105 88 75 109 119 103 96 80 87 104 108 126 138 150 153 155 129 173 181 112 86
182 127 96 113 107 118 122 112 87 82 88 106 123 136 142 144 142 139 130 123 118 107 103 96 90 92 88 85 90 100 92 67 53 46 82 74 59 71 86 90 102 123 121 99 113 91 67 62 65
197 158 152 130 117 125 118 117 111 104 110 121 129 137 143 143 140 141 140 137 126 121 115 108 91 88 90 89 93 94 87 80 79 42 76 73 63 63 68 70 52 56 69 75 57 64 57 50 46
180 177 164 161 160 153 142 145 161 147 146 144 143 145 147 143 144 138 137 135 133 136 123 97 97 96 95 91 77 86 88 91 76 55 65 84 76 65 59 70 57 51 43 47 67 74 73 57 50
201 192 183 181 187 175 165 185 200 163 162 160 156 151 147 151 149 144 144 141 139 134 124 115 108 90 85 84 73 78 71 73 67 63 56 69 73 70 57 59 49 42 40 46 51 57 60 67 55
213 210 206 199 201 189 204 204 190 174 169 165 159 154 153 160 162 155 152 145 137 129 113 111 113 98 95 92 80 82 81 77 76 65 55 57 65 67 54 55 47 44 43 45 51 59 58 56 49
220 217 202 192 200 193 204 191 170 177 173 171 169 162 172 167 166 157 151 142 138 132 128 128 111 105 97 98 92 87 84 85 79 63 55 55 62 77 69 50 48 50 45 42 48 47 60 59 55
235 227 209 202 180 191 199 192 176 187 188 180 174 167 171 166 169 158 150 144 133 127 135 133 126 123 109 94 91 81 72 73 88 82 70 61 54 68 75 65 61 62 58 43 58 51 41 51 58
270 257 231 212 170 194 206 201 191 192 187 181 178 176 176 170 163 151 150 141 142 148 139 131 134 131 120 101 90 90 85 70 70 83 88 82 71 74 69 60 60 60 66 64 76 79 63 47 55
248 255 249 212 182 224 218 220 201 195 188 183 185 182 175 165 158 155 145 137 150 147 141 143 135 129 125 123 125 123 110 98 83 58 50 48 67 79 84 87 83 70 56 54 78 81 69 15 17
250 251 244 229 213 235 236 237 221 192 183 174 179 174 164 164 163 160 157 151 151 147 153 151 149 146 140 131 117 95 84 80 78 73 47 23 57 77 67 66 85 100 98 72 71 89 90 59 352
251 258 259 249 244 246 230 243 215 182 175 168 173 178 165 163 154 149 156 152 151 151 147 150 158 148 139 133 131 137 136 135 130 130 142 89 69 79 82 74 68 82 84 78 35 75 88 97 15
259 264 257 252 252 259 249 251 213 175 176 176 174 171 165 162 150 146 148 145 140 141 151 170 168 147 144 148 148 155 147 139 127 117 120 108 90 95 93 88 86 81 83 85 54 56 62 87 88
260 259 254 245 250 252 243 238 207 181 178 172 164 158 164 161 151 149 144 138 138 132 161 170 169 154 145 158 162 163 154 153 139 127 123 133 129 105 102 98 95 93 98 88 74 77 53 60 90
242 253 251 229 221 239 232 224 173 136 135 151 153 155 156 150 153 145 139 147 146 151 158 170 163 160 161 172 174 174 164 171 165 165 164 163 131 108 121 91 106 100 96 102 103 113 140 152 144
232 233 235 251 253 259 240 212 125 119 111 116 125 132 138 147 150 146 154 155 153 158 159 160 171 171 170 181 188 168 157 161 164 169 144 159 158 170 163 132 128 116 80 59 68 79 125 100 124
243 243 257 272 281 272 223 159 136 127 122 121 124 126 135 145 146 146 152 151 152 160 166 175 170 165 170 188 176 162 153 142 143 157 137 143 152 168 134 127 127 118 106 88 90 84 27 42 73
252 259 263 257 273 272 254 209 161 157 146 129 131 134 133 132 126 128 131 139 151 155 161 168 166 168 167 180 173 158 148 147 148 157 156 156 161 147 140 142 136 123 112 102 103 104 71 75 35
235 243 248 259 260 269 266 295 97 139 140 142 142 130 126 125 126 127 129 137 136 138 144 153 165 163 162 165 157 148 138 143 146 161 161 137 113 119 149 158 166 135 132 134 130 133 134 155 213
243 248 252 254 272 279 278 128 87 103 111 119 123 131 128 126 122 119 128 131 131 141 153 156 175 167 157 163 160 155 150 141 135 134 126 110 100 117 140 151 149 132 121 113 127 147 172 178 196